Погода в Вигане

Филиппины     17°34′26″N   120°23′06″E
темп.,
°C
ветер,
м/с
пор.,
м/с
влажн.,
%
обл.,
%
осадки,
мм/ч
давл.,
гПа
погр.,
м
18 апреля, вс
вс1823:00+24всв4874100 0.0 1010286
02:00+23всв4872100 0.0 1009250
05:00+22в3371100 0.0 100961
08:00+28всв4649100 0.0 1010702
11:00+35с46315 0.0 10082160
14:00+35св673623 0.0 10051776
17:00+30св794974 0.0 1005843
20:00+26св8136365 0.0 1007639
19 апреля, пн
пн1923:00+25св71265100 0.0 1009629
02:00+24св5106899 0.0 1007380
05:00+23св496851 0.0 1007394
08:00+28св674574 0.0 1008880
11:00+34ссв452982 0.0 10071666
14:00+35ссз5531100 0.0 10032094
17:00+30св5746100 0.0 1004692
20:00+25св71364100 0.0 1006630
20 апреля, вт
вт2023:00+25св6126483 0.0 1007700
02:00+25св5116785 0.0 1005539
05:00+25св4968100 0.0 1005460
08:00+29св6851100 0.0 10071053
11:00+32св7742100 0.0 10061543
14:00+34ссв5639100 0.0 10041519
17:00+30св6848100 0.0 10041051
20:00+25ссв51166100 0.0 1007611
21 апреля, ср
ср2123:00+25св5971100 0.0 1007491
02:00+24ссв4876100 0.0 1006323
05:00+24с3576100 0.0 1006244
08:00+28ссв4558100 0.0 1007926
11:00+32ссв4645100 0.0 10061638
14:00+34с5641100 0.0 10031929
17:00+31с6748100 0.0 10031251
20:00+26с4672100 0.0 1006279
22 апреля, чт
чт2223:00+24с2478100 0.0 1007142
02:00+24ссв2482100 0.0 1006160
05:00+23св2386100 0.0 1006102
08:00+28с346292 0.0 1007749
11:00+33ссз7745100 0.0 10061873
14:00+32ссз9950100 0.0 10041275
17:00+28ссз8862100 0.0 1004950
20:00+25с3579100 0.0 1007206